SCP
-0 0 0 0 -0 0 -0 0 -0 0 -0 0 0 0 0 -0 0 0 0 0 0 0 0 0 0 0 -0 -0 -0 -0 -0 -0 0
-0 -0 0 0 0 -0 0 0 0 0 0 -0 0 0 0 0 0 0 0 0 0 0 0 0 0 -0 -0 -0 0 0 -0 0 0
-0 -0 -0 0 0 -0 0 0 0 0 0 0 0 0 0 0 0 0 0 0 0 0 0 0 0 -0 0 0 0 0 0 -0 -0
0 -0 -0 0 0 0 -0 -0 0 0 0 0 -0 0 0 0 0 0 0 0 0 0 0 0 0 0 0 0 0 -0 0 0 0
0 0 -0 0 0 0 0 -0 0 0 0 0 0 0 0 0 0 0 0 0 0 0 0 0 0 0 0 0 0 0 0 0 0
0 0 0 0 0 0 0 0 0 0 0 0 0 0 1 0 0 0 0 0 0 0 0 0 0 0 0 0 0 0 0 0 0
0 0 0 0 0 0 0 0 0 0 0 1 0 0 1 0 0 0 0 0 0 0 0 0 0 0 0 0 0 0 0 0 0
0 0 0 0 0 0 0 0 0 0 1 1 1 1 1 1 1 1 1 0 0 0 0 0 0 0 0 0 0 0 0 0 0
0 0 0 0 0 0 0 0 0 0 0 1 0 0 0 0 0 0 0 1 1 0 0 1 0 0 1 0 0 0 0 0 0
0 0 0 0 0 0 0 0 0 0 0 0 0 0 0 0 0 0 0 0 0 0 0 1 0 0 0 0 0 0 0 0 0
0 0 0 0 0 0 0 0 0 0 0 0 0 0 0 0 0 0 0 0 0 0 0 0 0 0 0 0 0 0 0 0 0
0 0 0 0 0 0 0 0 0 0 0 0 0 0 0 0 0 0 0 0 0 0 0 0 0 0 0 0 0 0 0 0 0
0 0 0 0 0 0 0 0 0 0 0 0 0 0 0 0 0 0 0 0 0 0 0 0 0 0 0 0 0 0 0 0 0
0 0 0 0 0 0 -0 0 0 0 0 0 0 0 0 0 0 0 0 0 0 0 0 0 0 0 0 0 0 0 0 0 0
0 0 0 0 -0 0 0 -0 -0 -0 -0 -0 0 0 0 0 0 0 0 0 0 0 0 0 0 0 0 0 0 0 0 0 0
0 0 0 -0 0 0 0 -0 -0 0 0 0 0 0 0 0 0 0 0 0 0 0 0 0 0 0 0 0 0 0 0 0 0
0 -0 0 0 0 0 0 0 0 0 0 0 0 0 0 0 0 0 0 0 0 0 0 0 0 0 0 0 0 0 0 0 0
-0 -0 0 0 0 0 0 0 0 0 0 0 0 0 0 0 0 0 0 0 0 0 0 0 0 0 0 0 0 0 0 0 0
-0 -0 -0 0 0 0 0 -0 -0 0 0 0 -0 0 0 0 0 0 0 0 0 0 0 0 0 0 0 0 0 0 0 0 0
-0 -0 -0 -0 0 0 -0 -0 -0 -0 -0 0 0 0 0 0 0 0 0 0 0 0 0 0 0 0 0 0 0 0 0 0 0
Wind_Speed_500mb
13 37 52 56 58 63 62 67 67 60 53 50 48 46 45 40 31 32 28 23 21 20 18 13 11 10 14 13 9 7 8 7 4
14 30 42 60 59 70 65 67 73 65 60 53 49 48 43 46 39 34 34 31 30 25 18 19 17 14 15 16 16 16 13 12 8
9 11 22 40 58 67 69 65 65 61 66 63 51 48 42 40 43 37 32 34 29 29 21 23 23 21 19 16 17 20 18 21 17
14 15 18 31 46 65 72 78 72 63 67 66 63 51 44 40 35 35 33 39 36 31 28 26 25 22 20 19 21 22 17 17 15
11 19 22 28 39 47 73 79 72 69 64 69 65 56 48 42 40 37 33 38 40 36 32 29 28 28 28 23 23 23 17 17 19
12 13 16 19 31 43 53 70 67 68 63 62 61 60 54 51 46 42 37 32 37 39 38 33 30 28 24 21 22 21 22 22 29
12 9 10 13 21 32 43 55 66 68 59 60 53 50 56 58 55 48 44 36 34 36 37 39 39 37 31 27 26 27 29 30 32
12 6 6 9 15 24 33 40 52 67 61 56 51 47 47 48 50 49 48 44 41 39 40 40 42 39 34 31 31 31 31 29 28
11 5 6 11 14 20 26 31 40 55 61 47 44 39 39 37 38 42 44 48 46 43 42 41 41 40 39 41 41 39 34 32 32
7 7 9 7 5 12 17 24 34 41 47 42 37 33 32 33 37 37 37 42 46 44 42 41 37 34 33 32 33 32 33 33 31
8 4 10 5 3 3 13 19 24 32 37 36 34 33 33 30 27 35 34 34 34 35 37 37 36 36 34 34 36 32 26 21 18
4 4 13 17 13 7 2 15 28 29 31 36 36 36 36 37 34 28 27 24 26 22 22 25 23 24 23 18 18 18 22 23 24
16 16 20 20 14 15 18 9 9 21 20 19 25 28 33 32 31 28 28 29 31 23 18 14 17 19 17 17 23 26 33 33 33
23 20 23 19 20 18 22 26 31 31 28 30 28 15 26 32 36 33 30 27 26 23 22 22 21 22 19 21 22 20 21 19 16
22 20 18 15 16 18 15 22 22 41 40 35 23 20 31 26 20 16 32 21 22 21 19 26 23 19 14 14 13 14 16 16 9
23 8 25 15 10 12 23 27 27 20 5 14 13 16 19 18 14 14 15 16 22 25 17 16 14 12 10 8 8 7 8 7 7
22 18 18 20 17 22 26 22 25 22 17 16 18 24 26 27 27 29 27 27 25 25 26 23 19 16 15 14 14 14 15 14 13
8 20 18 20 23 32 35 30 30 27 23 20 19 22 23 23 25 23 25 29 29 25 22 23 23 20 16 16 18 19 21 19 20
28 24 20 22 22 27 29 29 27 24 21 16 17 25 30 28 27 26 24 24 26 25 24 23 20 17 17 19 20 22 22 20 20
31 28 23 23 24 22 24 23 23 21 23 23 25 29 29 27 26 27 27 26 23 22 22 21 19 17 19 19 19 20 20 21 21
Wind_Direction_500mb
219 220 221 220 222 220 223 220 221 221 218 219 222 225 228 226 230 233 233 235 228 232 237 215 211 208 210 216 236 293 294 271 301
264 248 229 224 219 219 224 224 221 222 223 219 223 227 232 231 228 235 236 235 243 238 239 226 221 233 233 248 257 267 267 269 284
284 294 233 227 221 222 218 219 218 224 227 225 223 223 227 227 227 233 239 237 237 231 238 235 241 251 254 269 269 256 261 260 273
296 285 261 231 223 221 219 218 225 228 230 225 222 223 226 223 225 234 237 234 242 244 244 243 243 245 243 269 277 248 242 261 273
303 297 283 248 230 224 223 226 232 230 230 223 222 220 221 230 228 232 240 238 238 244 252 251 251 249 254 262 257 249 255 270 274
325 315 308 262 226 222 225 227 228 227 227 219 227 230 227 230 234 235 238 246 240 241 245 244 244 241 244 253 257 261 260 265 278
316 307 304 266 237 228 228 229 227 226 223 214 232 229 231 230 230 234 236 242 243 239 238 235 241 249 256 258 256 259 260 273 282
306 301 272 250 235 228 228 227 229 225 219 227 230 222 229 227 231 236 238 237 243 239 235 237 242 244 247 247 250 259 268 272 276
320 317 290 256 248 247 228 231 231 222 223 226 221 230 220 221 228 233 234 240 241 242 239 237 242 246 249 250 254 262 264 269 272
291 337 333 280 257 271 239 225 216 205 204 220 218 216 220 226 217 220 226 231 237 243 241 241 241 243 247 254 258 260 265 268 268
263 342 346 168 118 60 188 195 211 215 207 214 221 226 228 234 223 223 230 233 239 246 246 239 236 238 244 254 258 250 238 241 247
205 127 93 105 99 85 193 233 230 224 221 229 227 228 230 232 228 225 221 214 219 203 197 199 212 213 196 195 197 217 239 255 272
128 140 126 118 101 75 53 57 133 194 206 216 228 223 221 226 217 206 212 221 222 220 204 189 191 200 205 226 236 245 251 258 258
134 136 124 143 125 98 71 69 106 106 102 111 100 120 216 220 208 205 204 209 213 208 215 219 213 220 221 229 237 238 237 235 248
134 129 126 148 138 149 141 109 112 119 122 115 83 73 87 82 128 184 184 176 182 193 213 212 214 179 202 219 225 237 236 235 238
73 134 171 228 280 194 166 172 178 190 143 114 124 148 134 150 134 145 144 153 157 158 154 147 138 134 129 127 142 161 191 197 195
121 212 165 206 154 126 125 159 179 185 131 114 110 110 111 109 116 116 117 119 130 133 136 133 125 117 112 109 107 114 116 131 139
164 180 166 156 126 116 115 115 112 118 117 109 114 114 112 113 117 118 122 127 129 129 127 132 128 121 117 112 114 109 108 113 118
175 168 159 149 139 130 125 125 124 119 113 112 125 124 120 121 122 125 126 128 131 132 132 133 132 125 120 123 118 110 104 101 103
166 167 157 153 147 141 133 132 130 132 134 132 126 124 124 127 137 131 127 125 139 142 142 143 144 135 127 124 123 116 112 108 105
Wind_Speed_850mb
13 37 52 56 58 63 62 67 67 60 53 50 48 46 45 40 31 32 28 23 21 20 18 13 11 10 14 13 9 7 8 7 4
14 30 42 60 59 70 65 67 73 65 60 53 49 48 43 46 39 34 34 31 30 25 18 19 17 14 15 16 16 16 13 12 8
9 11 22 40 58 67 69 65 65 61 66 63 51 48 42 40 43 37 32 34 29 29 21 23 23 21 19 16 17 20 18 21 17
14 15 18 31 46 65 72 78 72 63 67 66 63 51 44 40 35 35 33 39 36 31 28 26 25 22 20 19 21 22 17 17 15
11 19 22 28 39 47 73 79 72 69 64 69 65 56 48 42 40 37 33 38 40 36 32 29 28 28 28 23 23 23 17 17 19
12 13 16 19 31 43 53 70 67 68 63 62 61 60 54 51 46 42 37 32 37 39 38 33 30 28 24 21 22 21 22 22 29
12 9 10 13 21 32 43 55 66 68 59 60 53 50 56 58 55 48 44 36 34 36 37 39 39 37 31 27 26 27 29 30 32
12 6 6 9 15 24 33 40 52 67 61 56 51 47 47 48 50 49 48 44 41 39 40 40 42 39 34 31 31 31 31 29 28
11 5 6 11 14 20 26 31 40 55 61 47 44 39 39 37 38 42 44 48 46 43 42 41 41 40 39 41 41 39 34 32 32
7 7 9 7 5 12 17 24 34 41 47 42 37 33 32 33 37 37 37 42 46 44 42 41 37 34 33 32 33 32 33 33 31
8 4 10 5 3 3 13 19 24 32 37 36 34 33 33 30 27 35 34 34 34 35 37 37 36 36 34 34 36 32 26 21 18
4 4 13 17 13 7 2 15 28 29 31 36 36 36 36 37 34 28 27 24 26 22 22 25 23 24 23 18 18 18 22 23 24
16 16 20 20 14 15 18 9 9 21 20 19 25 28 33 32 31 28 28 29 31 23 18 14 17 19 17 17 23 26 33 33 33
23 20 23 19 20 18 22 26 31 31 28 30 28 15 26 32 36 33 30 27 26 23 22 22 21 22 19 21 22 20 21 19 16
22 20 18 15 16 18 15 22 22 41 40 35 23 20 31 26 20 16 32 21 22 21 19 26 23 19 14 14 13 14 16 16 9
23 8 25 15 10 12 23 27 27 20 5 14 13 16 19 18 14 14 15 16 22 25 17 16 14 12 10 8 8 7 8 7 7
22 18 18 20 17 22 26 22 25 22 17 16 18 24 26 27 27 29 27 27 25 25 26 23 19 16 15 14 14 14 15 14 13
8 20 18 20 23 32 35 30 30 27 23 20 19 22 23 23 25 23 25 29 29 25 22 23 23 20 16 16 18 19 21 19 20
28 24 20 22 22 27 29 29 27 24 21 16 17 25 30 28 27 26 24 24 26 25 24 23 20 17 17 19 20 22 22 20 20
31 28 23 23 24 22 24 23 23 21 23 23 25 29 29 27 26 27 27 26 23 22 22 21 19 17 19 19 19 20 20 21 21
Wind_Direction_850mb
219 220 221 220 222 220 223 220 221 221 218 219 222 225 228 226 230 233 233 235 228 232 237 215 211 208 210 216 236 293 294 271 301
264 248 229 224 219 219 224 224 221 222 223 219 223 227 232 231 228 235 236 235 243 238 239 226 221 233 233 248 257 267 267 269 284
284 294 233 227 221 222 218 219 218 224 227 225 223 223 227 227 227 233 239 237 237 231 238 235 241 251 254 269 269 256 261 260 273
296 285 261 231 223 221 219 218 225 228 230 225 222 223 226 223 225 234 237 234 242 244 244 243 243 245 243 269 277 248 242 261 273
303 297 283 248 230 224 223 226 232 230 230 223 222 220 221 230 228 232 240 238 238 244 252 251 251 249 254 262 257 249 255 270 274
325 315 308 262 226 222 225 227 228 227 227 219 227 230 227 230 234 235 238 246 240 241 245 244 244 241 244 253 257 261 260 265 278
316 307 304 266 237 228 228 229 227 226 223 214 232 229 231 230 230 234 236 242 243 239 238 235 241 249 256 258 256 259 260 273 282
306 301 272 250 235 228 228 227 229 225 219 227 230 222 229 227 231 236 238 237 243 239 235 237 242 244 247 247 250 259 268 272 276
320 317 290 256 248 247 228 231 231 222 223 226 221 230 220 221 228 233 234 240 241 242 239 237 242 246 249 250 254 262 264 269 272
291 337 333 280 257 271 239 225 216 205 204 220 218 216 220 226 217 220 226 231 237 243 241 241 241 243 247 254 258 260 265 268 268
263 342 346 168 118 60 188 195 211 215 207 214 221 226 228 234 223 223 230 233 239 246 246 239 236 238 244 254 258 250 238 241 247
205 127 93 105 99 85 193 233 230 224 221 229 227 228 230 232 228 225 221 214 219 203 197 199 212 213 196 195 197 217 239 255 272
128 140 126 118 101 75 53 57 133 194 206 216 228 223 221 226 217 206 212 221 222 220 204 189 191 200 205 226 236 245 251 258 258
134 136 124 143 125 98 71 69 106 106 102 111 100 120 216 220 208 205 204 209 213 208 215 219 213 220 221 229 237 238 237 235 248
134 129 126 148 138 149 141 109 112 119 122 115 83 73 87 82 128 184 184 176 182 193 213 212 214 179 202 219 225 237 236 235 238
73 134 171 228 280 194 166 172 178 190 143 114 124 148 134 150 134 145 144 153 157 158 154 147 138 134 129 127 142 161 191 197 195
121 212 165 206 154 126 125 159 179 185 131 114 110 110 111 109 116 116 117 119 130 133 136 133 125 117 112 109 107 114 116 131 139
164 180 166 156 126 116 115 115 112 118 117 109 114 114 112 113 117 118 122 127 129 129 127 132 128 121 117 112 114 109 108 113 118
175 168 159 149 139 130 125 125 124 119 113 112 125 124 120 121 122 125 126 128 131 132 132 133 132 125 120 123 118 110 104 101 103
166 167 157 153 147 141 133 132 130 132 134 132 126 124 124 127 137 131 127 125 139 142 142 143 144 135 127 124 123 116 112 108 105